Find Starlink 1371

NORAD ID: 45542 Int'l Des: 2020-025 Owner: SPXS Country: US Constellation: starlink operational
LEOCIRCULAR

Live Position

Loading 3D Globe...

About Starlink 1371

Description loading...

Upcoming Passes

Passes for default location (London). Set your location on the main map for personalized predictions.

Altitude History

Loading altitude history...

Two-Line Element Set

1 45542U 20025M 26124.52160810 .00086381 00000-0 11859-2 0 9999
2 45542 53.0451 180.7794 0006457 359.2356 0.8644 15.56600788334009
Epoch: May 4, 2026 • Age: 11 hours

Current Status

Altitude 401.7 km
Velocity 7.67 km/s
Sub-Earth Point 20.02°N, 120.27°E
Launch Date Apr 22, 2020
Age 6 years
Type internet

Technical Details

Classification Payload
Mass 260.00 kg
Dry Mass 248.00 kg
Total Mass 260.00 kg
Length 0.20 m
Diameter 2.80 m
Span 9.00 m
Shape Box + pan
Manufacturer SPXS
Bus Type Starlink
Phase Status In Orbit
Owner/State SPXS/US

Most Searched